Location: Ward Pound Ridge Reservation
(41.2500°N, 73.6000°W)
Time: 03:49:13
(UTC-04:00)

ISS - Pass Details

Date: 14 October 2017
Orbit: 400 x 408 km, 51.6° (Epoch: 24 October)

Event Time Altitude Azimuth Distance (km) Brightness Sun altitude
Rises 19:26:20 0° 302° (WNW) 2,325 1.1 -14.2°
Reaches altitude 10° 19:28:27 10° 298° (WNW) 1,464 0.0 -14.6°
Maximum altitude 19:31:40 54° 220° (SW) 497 -3.2 -15.2°
Enters shadow 19:33:38 21° 148° (SSE) 982 -2.2 -15.6°
